Regional Weather Roundup
Issued by NWS

Home | Current Version | Previous Version | Text Only | Print | Product List | Glossary On
Versions: 1 2 3 4 5 6 7 8 9 10 11 12 13 14 15 16 17 18 19 20 21 22 23 24 25 26 27 28 29 30 31 32 33 34 35 36 37 38 39 40 41 42 43 44 45 46 47 48 49 50
000
ASUS46 KPQR 282310
RWROR

OREGON REGIONAL WEATHER ROUNDUP
NATIONAL WEATHER SERVICE PORTLAND OR
400 PM PDT SAT MAR 28 2015

NOTE: "FAIR" INDICATES FEW OR NO CLOUDS BELOW 12,000 FEET WITH
NO SIGNIFICANT WEATHER AND/OR OBSTRUCTIONS TO VISIBILITY.

ORZ001>013-290000-
NORTHWEST OREGON


CITY           SKY/WX    TMP DP  RH WIND       PRES   REMARKS
ASTORIA        PTSUNNY   57  42  57 SW13G22   30.36F
NEWPORT        PTSUNNY   54  45  71 W5        30.41F
PORTLAND       PTSUNNY   60  42  51 S8        30.37F
VANCOUVER WA   CLOUDY    60  41  49 VRB6      30.36F
SCAPPOOSE      PTSUNNY   61  42  49 S7        30.34F
HILLSBORO      PTSUNNY   59  42  53 S14       30.35F
AURORA         PTSUNNY   58  43  57 S10       30.38F
MCMINNVILLE    PTSUNNY   60  44  55 S9        30.37F
SALEM          PTSUNNY   60  41  49 S9        30.37F
CORVALLIS      PTSUNNY   63  41  45 S5        30.38F
EUGENE         PTSUNNY   62  42  47 NE6       30.37F
$$

ORZ021-028-290000-
SOUTHWEST OREGON


CITY           SKY/WX    TMP DP  RH WIND       PRES   REMARKS
NORTH BEND     MOSUNNY   59  46  63 N10       30.37F
BROOKINGS      PTSUNNY   62  52  70 NW10      30.28F
ROSEBURG       MOSUNNY   65  36  34 NW8       30.32F
SEXTON SUMMIT  PTSUNNY   53  32  44 VRB5      30.31F
MEDFORD        MOSUNNY   65  33  30 N7        30.29F
$$

ORZ014>016-041-290000-
COLUMBIA GORGE


CITY           SKY/WX    TMP DP  RH WIND       PRES   REMARKS
TROUTDALE      CLOUDY    60  40  47 SW6       30.36F
THE DALLES     MOSUNNY   62  39  42 NW20      30.33S
$$

ORZ029>031-041-044-049-050-061>064-502-503-505>511-290000-
EASTERN OREGON


CITY           SKY/WX    TMP DP  RH WIND       PRES   REMARKS
REDMOND        PTSUNNY   58  24  27 NE9       30.31S
BEND             N/A     55  21  26 N7        30.31
PRINEVILLE     PTSUNNY   54  27  35 N6        30.32S
KLAMATH FALLS  SUNNY     57  22  25 CALM      30.29F
LAKEVIEW       MOSUNNY   57  21  24 SE3       30.30F
HERMISTON      SUNNY     65  36  34 W22G30    30.29S
PENDLETON      SUNNY     59  36  42 W23       30.29R
JOHN DAY       SUNNY     54  26  33 W12       30.30S
MEACHAM        SUNNY     51  30  44 VRB7      30.31R
LA GRANDE      MOSUNNY   57  28  33 N6        30.28R
BAKER CITY     SUNNY     56  26  31 N7        30.28R
BURNS          MOSUNNY   56  18  22 VRB3      30.30F
ROME             N/A     62  12  14 N9        30.27F
ONTARIO        SUNNY     64  24  21 W6        30.27F
$$


USA.gov is the U.S. government's official web portal to all federal, state and local government web resources and services.